Погода в Томске

Погода в Томске : погода сейчас, прогноз погоды и архив. Всё, что Вы хотите узнать о погоде в Томске!

Хотите узнать прогноз погоды в Томске? Тогда Вам сюда: Погода в Томске

Поиск расширенной информации на нашем сайте:

Другие новости

Новости СМИ2

Главная страница сайта

Новости сайта

03.07.2017

Напоминаем, что на нашем специализированном сайте Метеоцентр.Азия вы можете получить высокодетализированные автоматические прогнозы погоды по пунктам России, СНГ и мира в авиационном формате (включающие направление и скорость ветра, видимость, явления погоды, количество и форму облачности, нижнюю и верхнюю границу облачности).


Погода в Томске - сегодня

Время (UTC), дата Ветер
(°,м/с) 
Видим.   Явления Облачность Т
(°С)
Тd
(°С)
f(%) Тe
(°С)
Pmin
(гПа)
dP
(гПа)
Po
(мм)
O2
(г/м3)
Тmin Tmax R s Состояние
почвы
03 17.06.18 тихо ()   20000 м    10/0 средняя 
[Ac und]
+16.7 +10.6 67 +19  1009.6  0.3  745  281           
06 17.06.18 160 (Ю) 20000 м    8/5 1300 м средняя 
[Cu hum|Ac trans]
+20.7 +11 54 +23  1009.2  -0.2  745  277           
09 17.06.18 130 (ЮВ) 20000 м    10/10 1000 м верхняя 
[Cu hum|Ci fib]
+22.9 +11.2 48 +26  1007.9  -1.2  744  274           
12 17.06.18 120 (ЮВ) 20000 м    8/0 
+22.9 +11 47 +26  1006.9  -1  743  274    +23.5       
15 17.06.18 050 (СВ) 20000 м    8/0 верхняя 
[Ci fib]
+19.1 +12.2 64 +25  1005.5  -1.5  742  277           
18 17.06.18 060 (СВ) 20000 м    10/0 верхняя 
[Ci fib]
+18.2 +12 67 +23  1004  -1.6  741  278           
21 17.06.18 тихо ()   20000 м    6/0 средняя 
[Ac trans]
+16.7 +13.1 79 +23  1005.2  1.1  742  279           
00 18.06.18 040 (СВ) 20000 м    4/0 средняя 
[Ac trans]
+16.9 +13.1 78 +24  1004.2  -0.9  741  279  +16.4        сухая 
03 18.06.18 тихо ()   20000 м    3/0 верхняя 
[Ci fib]
+26.9 +15.3 49 +36  1003.4  -0.3  741  269           
06 18.06.18 070 (В) 20000 м    ясно 
+30.2 +11.3 31 +33  1001.5  -1.7  740  266           
09 18.06.18 060 (СВ) 20000 м    ясно 
+30.8 +11.1 30 +34  999.7  -1.7  738  265           
12 18.06.18 060 (СВ) 20000 м    ясно 
+29.5 +11.9 34 +34  998.8  -1  737  266    +31.4       
15 18.06.18 050 (СВ) 20000 м    4/0 верхняя 
[Ci fib]
+23.8 +12.8 50 +29  997.8  -1.3  737  270           
18 18.06.18 040 (СВ) 20000 м    6/0 верхняя 
[Ci fib]
+21 +13 60 +27  996.9  -1  736  273           
21 18.06.18 260 (З) 20000 м    10/6 600 м кучево-дожд., средняя, верхняя 
[Cb cap|Ac trans|Ci fib]
+19.3 +12.8 66 +25  999.2  2.2  737  275           
00 19.06.18 200 (Ю) 20000 м    3/0 средняя 
[Ac trans]
+17.4 +13.7 79 +26  998.6  -0.7  737  276  +16.6        сухая 
03 19.06.18 тихо ()   20000 м    1/0 средняя 
[Ac trans]
+22.6 +13.7 57 +30  998.6  0.3  737  272           
06 19.06.18 180 (Ю) 20000 м    3/3 600 м 
[Cu hum]
+26.1 +13.4 45 +33  998  -0.4  737  268           
09 19.06.18 110 (В) 20000 м    4/1 600 м верхняя 
[Cu hum|Cs]
+28.5 +13 38 +34  996.8  -1.1  736  266           
12 19.06.18 010 (С) 20000 м    9/6 600 м средняя 
[Sc|Ac trans]
+28.3 +12.7 38 +34  993.7  -3.1  734  265    +28.8       
15 19.06.18 120 (ЮВ) 20000 м    8/8 300 м 
[Sc]
+23.1 +8.3 39 +23  993.4  -0.6  733  271           
21 19.06.18 240 (ЮЗ) 20000 м    10/10 630 м 
[Sc]
+16.1 +11.6 75 +21  999  3.3  737  278           
00 20.06.18 260 (З) 20000 м    8/8 600 м 
[Sc]
+15.1 +11 76 +19  1001.7  2.6  739  280  +14.6    0.3    сухая 
03 20.06.18 050 (СВ) 20000 м    ясно 
+19.9 +10.7 55 +23  1002.4  0.9  740  276           
06 20.06.18 100 (В) 20000 м    8/8 600 м кучево-дожд. 
[Cb cap]
+22.8 +9.5 43 +24  1002.1  -0.1  740  273           
Время (UTC), дата Ветер
(°,м/с) 
Видим.   Явления Облачность Т
(°С)
Тd
(°С)
f(%) Тe
(°С)
Pmin
(гПа)
dP
(гПа)
Po
(мм)
O2
(г/м3)
Тmin Tmax R s Состояние
почвы

Для получения пояснительной информации подведите курсор к названию столбца.

ПОГОДА в Томске - архив

Всё, что Вы хотите узнать о погоде в Томске - удобно и подробно!

Выберите нужную дату (начиная с 1 января 2015* года) и нажмите кнопку "Найти".
Будут отображены архивные сводки погоды по пункту Томск, начиная с указанной даты.


Отображать данные в формате CSV (для использования в таблицах Excel)


Внимание! Наш архив погоды предназначен исключительно для личного некоммерческого использования в познавательных целях. Если Вам необходимы официальные справки о состоянии погоды (для производственных, юридических, коммерческих и т.п. целей), обращайтесь в органы Росгидромета.

*Примечание: данная дата относится к архиву по метеостанциям СССР (Россия, СНГ, Балтия).
Архив по метеостанциям Зарубежной Европы и Азии (кроме Китая) хранится 10 дней, по другим регионам земного шара (Китай, Африка, Америка, Австралия, Океания) - 1 день.

Томск - район местоположения метеостанции


Название, широта, долгота, высота метеостанции:
Томск 56.5°ш. 84.9°д. 139 м над ур. моря [Российская Федерация]

Дополнительная информация

В oтличие oт бoльшинства пoгoдных сайтoв мы публикуем пoдрoбную метеoинфoрмацию в детальнoм прoфессиoнальнoм фoрмате.

Характеристики температуры и влажнoсти вoздуха измеряются на высoте 2 м в тени вдали oт зданий и деревьев.
Скoрoсть ветра измеряется на высoте 10 м (на урoвне рoста челoвека скoрoсть ветра ниже в 1.5-2 раза). Если метеoстанция нахoдится в гoрoде или в лесу, тo скoрoсть ветра занижена на 2-4 м/с пo сравнению с oткрытым местoм. Скoрoсть ветра над акватoриями крупных рек и oзёр, а также на вершинах хoлмoв на 2-5 м/с выше, чем в oбычных услoвиях.
Атмoсфернoе давление в разных тoчках местнoсти мoжет значительнo oтличаться oт давления на метеoстанции, в зависимoсти oт услoвий рельефа (при пoдъёме на 10 м давление пoнижается примернo на 1 мм рт.ст.).